Total_Precipitation_Accumulation
1.33 1.25 1.23 1.21 1.18 1.00 0.85 0.64 0.58 0.65 0.53 0.42 0.32 0.29 0.26 0.25 0.26 0.30 0.34 0.41 0.47 0.62 0.91 1.33 1.33 1.14 1.26
1.67 1.53 1.29 0.98 0.71 0.50 0.35 0.24 0.17 0.25 0.20 0.16 0.17 0.16 0.14 0.15 0.20 0.22 0.24 0.28 0.38 0.52 0.62 0.73 0.89 0.86 0.87
0.86 0.72 0.61 0.45 0.34 0.26 0.19 0.15 0.11 0.18 0.18 0.16 0.17 0.14 0.12 0.13 0.17 0.19 0.22 0.21 0.20 0.24 0.38 0.41 0.47 0.64 0.72
0.60 0.53 0.45 0.34 0.33 0.31 0.29 0.25 0.22 0.19 0.20 0.18 0.20 0.19 0.17 0.15 0.12 0.09 0.08 0.09 0.14 0.19 0.33 0.51 0.50 0.52 0.48
0.74 0.60 0.45 0.34 0.30 0.27 0.28 0.24 0.23 0.19 0.17 0.17 0.19 0.18 0.16 0.18 0.16 0.14 0.14 0.19 0.28 0.35 0.41 0.54 0.68 0.72 0.56
0.93 0.52 0.30 0.28 0.31 0.37 0.48 0.47 0.40 0.17 0.21 0.17 0.14 0.14 0.10 0.10 0.15 0.17 0.19 0.24 0.32 0.36 0.38 0.44 0.57 0.61 0.59
0.47 0.34 0.28 0.30 0.57 0.58 0.46 0.47 0.34 0.15 0.25 0.28 0.17 0.20 0.18 0.21 0.32 0.32 0.33 0.42 0.47 0.47 0.46 0.44 0.43 0.39 0.38
0.34 0.29 0.38 0.40 0.52 0.73 0.71 0.63 0.51 0.29 0.25 0.46 0.16 0.14 0.16 0.15 0.30 0.37 0.39 0.47 0.55 0.56 0.57 0.58 0.57 0.56 0.53
0.53 0.49 0.56 0.69 0.82 0.95 0.95 0.89 0.78 0.39 0.28 0.48 0.33 0.28 0.25 0.23 0.31 0.58 0.55 0.46 0.41 0.39 0.41 0.49 0.60 0.67 0.58
0.52 0.50 0.51 0.54 0.68 0.60 0.73 1.32 1.13 0.99 0.45 0.95 0.73 0.66 1.03 0.36 0.24 0.27 0.39 0.46 0.51 0.50 0.53 0.57 0.68 0.62 0.52
0.62 0.54 0.47 0.49 0.54 0.55 0.60 1.07 1.44 1.06 0.46 1.62 1.60 0.85 1.42 0.81 0.36 0.38 0.45 0.56 0.67 0.62 0.69 0.83 0.89 0.94 0.83
0.62 0.59 0.52 0.44 0.39 0.51 0.66 0.85 1.00 1.30 0.89 1.24 2.14 1.05 1.73 1.24 0.52 0.36 0.43 0.56 0.87 1.01 1.05 1.13 1.26 1.24 1.09
0.47 0.39 0.38 0.44 0.60 0.71 0.63 0.54 0.58 0.74 0.86 0.88 1.36 1.25 1.56 1.37 0.83 0.47 0.67 0.52 0.83 1.15 1.02 0.92 1.02 1.14 1.10
0.63 0.53 0.55 0.58 0.56 0.64 0.77 0.63 0.78 0.66 0.70 0.81 1.01 1.23 1.24 0.75 0.94 0.73 0.59 0.92 0.70 0.78 0.82 0.74 0.94 1.18 1.20
1.10 0.99 0.85 0.68 0.65 0.70 0.87 0.98 1.04 0.71 0.78 0.86 0.84 0.85 0.87 0.83 0.90 0.54 0.56 0.63 0.77 0.97 0.89 0.72 0.83 1.34 1.29
1.26 1.22 1.17 1.09 0.96 0.86 0.87 0.98 0.96 0.79 0.78 0.77 0.93 0.89 0.68 0.46 0.56 0.71 0.73 0.71 0.82 0.93 0.92 1.11 0.90 1.04 1.05
1.70 1.41 1.29 1.22 1.45 1.20 1.01 1.04 0.88 0.77 0.75 0.78 0.90 1.25 1.39 0.67 0.36 0.66 1.22 1.02 0.84 0.76 0.76 0.85 1.03 1.09 0.89